Time,TemperatureF,DewpointF,PressureIn,WindDirection,WindDirectionDegrees,WindSpeedMPH,WindSpeedGustMPH,Humidity,HourlyPrecipIn,Conditions,Clouds,dailyrainin,SoftwareType,DateUTC
2013-04-07 00:01:00,65.3,50.5,30.12,North,-999,0.0,0.0,59,0.00,,,-99.99,FreeWX 2.05,2013-04-07 04:01:00,
2013-04-07 00:11:00,65.3,50.5,30.12,North,-999,0.0,2.7,59,0.00,,,-99.99,FreeWX 2.05,2013-04-07 04:11:00,
2013-04-07 00:21:00,65.3,50.5,30.12,North,-999,0.0,2.7,59,0.00,,,-99.99,FreeWX 2.05,2013-04-07 04:21:00,
2013-04-07 00:31:00,65.3,50.5,30.12,North,-999,0.0,2.7,59,0.00,,,-99.99,FreeWX 2.05,2013-04-07 04:31:00,
2013-04-07 00:41:00,65.1,50.0,30.12,North,-999,0.0,3.1,58,0.00,,,-99.99,FreeWX 2.05,2013-04-07 04:41:00,
2013-04-07 00:51:00,65.3,49.6,30.12,WSW,254,1.0,4.5,57,0.00,,,-99.99,FreeWX 2.05,2013-04-07 04:51:00,
2013-04-07 01:01:00,65.5,49.3,30.12,WSW,252,1.0,3.6,56,0.00,,,-99.99,FreeWX 2.05,2013-04-07 05:01:00,
2013-04-07 01:11:00,65.5,48.9,30.12,West,261,1.0,4.5,55,0.00,,,-99.99,FreeWX 2.05,2013-04-07 05:11:00,
2013-04-07 01:42:00,65.1,48.6,30.09,North,-999,0.0,3.1,55,0.00,,,-99.99,FreeWX 2.05,2013-04-07 05:42:00,
2013-04-07 01:52:00,64.8,48.2,30.12,North,-999,0.0,2.7,55,0.00,,,-99.99,FreeWX 2.05,2013-04-07 05:52:00,
2013-04-07 02:02:00,64.8,48.7,30.09,WSW,258,1.0,4.0,56,0.00,,,-99.99,FreeWX 2.05,2013-04-07 06:02:00,
2013-04-07 02:12:00,64.6,48.9,30.09,WSW,256,1.0,4.5,57,0.00,,,-99.99,FreeWX 2.05,2013-04-07 06:12:00,
2013-04-07 02:22:00,64.4,48.7,30.09,West,261,1.0,4.5,57,0.00,,,-99.99,FreeWX 2.05,2013-04-07 06:22:00,
2013-04-07 02:32:00,64.2,49.1,30.09,WSW,258,1.0,4.5,58,0.00,,,-99.99,FreeWX 2.05,2013-04-07 06:32:00,
2013-04-07 02:42:00,64.0,48.9,30.09,North,-999,0.0,3.1,58,0.00,,,-99.99,FreeWX 2.05,2013-04-07 06:42:00,
2013-04-07 02:52:00,63.9,49.6,30.09,WSW,253,1.0,4.5,60,0.00,,,-99.99,FreeWX 2.05,2013-04-07 06:52:00,
2013-04-07 03:02:00,63.9,50.2,30.06,West,266,2.0,4.9,61,0.00,,,-99.99,FreeWX 2.05,2013-04-07 07:02:00,
2013-04-07 03:12:00,63.9,51.1,30.06,West,265,1.0,4.9,63,0.00,,,-99.99,FreeWX 2.05,2013-04-07 07:12:00,
2013-04-07 03:22:00,63.7,51.6,30.06,WSW,255,1.0,4.0,65,0.00,,,-99.99,FreeWX 2.05,2013-04-07 07:22:00,
2013-04-07 03:32:00,63.5,52.0,30.06,WSW,255,2.0,4.0,66,0.00,,,-99.99,FreeWX 2.05,2013-04-07 07:32:00,
2013-04-07 03:42:00,63.5,52.3,30.06,North,-999,0.0,3.1,67,0.00,,,-99.99,FreeWX 2.05,2013-04-07 07:42:00,
2013-04-07 03:52:00,63.3,52.5,30.06,North,-999,0.0,3.6,68,0.00,,,-99.99,FreeWX 2.05,2013-04-07 07:52:00,
2013-04-07 04:02:00,63.1,52.9,30.06,North,-999,0.0,3.1,69,0.00,,,-99.99,FreeWX 2.05,2013-04-07 08:02:00,
2013-04-07 04:12:00,63.1,52.9,30.06,North,-999,0.0,0.0,69,0.00,,,-99.99,FreeWX 2.05,2013-04-07 08:12:00,
2013-04-07 04:22:00,63.0,53.1,30.06,North,-999,0.0,0.0,70,0.00,,,-99.99,FreeWX 2.05,2013-04-07 08:22:00,
2013-04-07 04:32:00,63.0,53.1,30.06,North,-999,0.0,0.0,70,0.00,,,-99.99,FreeWX 2.05,2013-04-07 08:32:00,
2013-04-07 04:42:00,63.0,53.1,30.06,North,-999,0.0,0.0,70,0.00,,,-99.99,FreeWX 2.05,2013-04-07 08:42:00,
2013-04-07 04:52:00,63.0,53.4,30.09,North,-999,0.0,0.0,71,0.00,,,-99.99,FreeWX 2.05,2013-04-07 08:52:00,
2013-04-07 05:02:00,62.8,53.2,30.09,North,-999,0.0,0.0,71,0.00,,,-99.99,FreeWX 2.05,2013-04-07 09:02:00,
2013-04-07 05:12:00,62.6,53.1,30.09,North,-999,0.0,0.0,71,0.00,,,-99.99,FreeWX 2.05,2013-04-07 09:12:00,
2013-04-07 05:22:00,62.6,53.1,30.09,North,-999,0.0,0.0,71,0.00,,,-99.99,FreeWX 2.05,2013-04-07 09:22:00,
2013-04-07 05:32:00,62.6,53.1,30.09,North,-999,0.0,0.0,71,0.00,,,-99.99,FreeWX 2.05,2013-04-07 09:32:00,
2013-04-07 05:42:00,62.2,53.1,30.09,North,-999,0.0,0.0,72,0.00,,,-99.99,FreeWX 2.05,2013-04-07 09:42:00,
2013-04-07 05:52:00,62.2,53.1,30.09,North,-999,0.0,0.0,72,0.00,,,-99.99,FreeWX 2.05,2013-04-07 09:52:00,
2013-04-07 06:02:00,62.2,53.1,30.09,North,-999,0.0,2.7,72,0.00,,,-99.99,FreeWX 2.05,2013-04-07 10:02:00,
2013-04-07 06:12:00,62.2,53.4,30.09,North,-999,0.0,0.0,73,0.00,,,-99.99,FreeWX 2.05,2013-04-07 10:12:00,
2013-04-07 06:22:00,62.2,53.4,30.09,North,-999,0.0,4.5,73,0.00,,,-99.99,FreeWX 2.05,2013-04-07 10:22:00,
2013-04-07 06:32:00,62.4,54.0,30.09,North,-999,0.0,3.1,74,0.00,,,-99.99,FreeWX 2.05,2013-04-07 10:32:00,
2013-04-07 06:42:00,62.4,54.3,30.09,North,-999,0.0,3.1,75,0.00,,,-99.99,FreeWX 2.05,2013-04-07 10:42:00,
2013-04-07 06:52:00,62.4,54.3,30.12,North,-999,0.0,2.7,75,0.00,,,-99.99,FreeWX 2.05,2013-04-07 10:52:00,
2013-04-07 07:02:00,62.4,54.3,30.12,North,-999,0.0,3.1,75,0.00,,,-99.99,FreeWX 2.05,2013-04-07 11:02:00,
2013-04-07 07:12:00,62.4,54.7,30.12,North,-999,0.0,3.6,76,0.00,,,-99.99,FreeWX 2.05,2013-04-07 11:12:00,
2013-04-07 07:22:00,62.4,55.0,30.12,West,260,1.0,4.0,77,0.00,,,-99.99,FreeWX 2.05,2013-04-07 11:22:00,
2013-04-07 07:32:00,62.4,55.4,30.12,North,-999,0.0,3.6,78,0.00,,,-99.99,FreeWX 2.05,2013-04-07 11:32:00,
2013-04-07 07:42:00,62.6,55.6,30.12,North,-999,0.0,0.0,78,0.00,,,-99.99,FreeWX 2.05,2013-04-07 11:42:00,
2013-04-07 07:52:00,62.8,56.1,30.12,North,-999,0.0,4.0,79,0.00,,,-99.99,FreeWX 2.05,2013-04-07 11:52:00,
2013-04-07 08:02:00,63.3,57.0,30.12,West,259,2.0,4.0,80,0.00,,,-99.99,FreeWX 2.05,2013-04-07 12:02:00,
2013-04-07 08:12:00,63.5,57.2,30.12,WSW,256,2.0,4.0,80,0.00,,,-99.99,FreeWX 2.05,2013-04-07 12:12:00,
2013-04-07 08:22:00,63.7,57.4,30.15,West,264,1.0,4.5,80,0.00,,,-99.99,FreeWX 2.05,2013-04-07 12:22:00,
2013-04-07 08:32:00,64.2,58.3,30.15,West,268,1.0,4.0,81,0.00,,,-99.99,FreeWX 2.05,2013-04-07 12:32:00,
2013-04-07 08:42:00,65.1,59.5,30.15,West,263,2.0,4.5,82,0.00,,,-99.99,FreeWX 2.05,2013-04-07 12:42:00,
2013-04-07 08:52:00,65.7,59.7,30.15,WSW,256,3.0,5.4,81,0.00,,,-99.99,FreeWX 2.05,2013-04-07 12:52:00,
2013-04-07 09:02:00,65.8,58.8,30.15,West,259,3.0,4.9,78,0.00,,,-99.99,FreeWX 2.05,2013-04-07 13:02:00,
2013-04-07 09:12:00,66.4,58.3,30.15,West,265,2.0,5.4,75,0.00,,,-99.99,FreeWX 2.05,2013-04-07 13:12:00,
2013-04-07 09:22:00,66.7,56.7,30.15,WSW,258,3.0,5.4,70,0.00,,,-99.99,FreeWX 2.05,2013-04-07 13:22:00,
2013-04-07 09:32:00,67.3,56.3,30.15,West,260,2.0,4.9,68,0.00,,,-99.99,FreeWX 2.05,2013-04-07 13:32:00,
2013-04-07 09:42:00,68.2,56.3,30.15,North,-999,0.0,4.0,66,0.00,,,-99.99,FreeWX 2.05,2013-04-07 13:42:00,
2013-04-07 09:52:00,68.9,56.1,30.15,North,-999,0.0,4.5,64,0.00,,,-99.99,FreeWX 2.05,2013-04-07 13:52:00,
2013-04-07 10:02:00,69.6,55.0,30.15,West,268,1.0,4.9,60,0.00,,,-99.99,FreeWX 2.05,2013-04-07 14:02:00,
2013-04-07 10:12:00,70.0,51.1,30.15,West,266,3.0,5.8,51,0.00,,,-99.99,FreeWX 2.05,2013-04-07 14:12:00,
2013-04-07 10:22:00,70.3,49.6,30.15,West,263,3.0,5.8,48,0.00,,,-99.99,FreeWX 2.05,2013-04-07 14:22:00,
2013-04-07 10:32:00,70.9,48.4,30.18,West,264,3.0,5.4,45,0.00,,,-99.99,FreeWX 2.05,2013-04-07 14:32:00,
2013-04-07 10:42:00,71.6,47.8,30.18,West,267,3.0,4.9,43,0.00,,,-99.99,FreeWX 2.05,2013-04-07 14:42:00,
2013-04-07 10:53:00,72.1,45.1,30.18,WSW,257,3.0,4.9,38,0.00,,,-99.99,FreeWX 2.05,2013-04-07 14:53:00,
2013-04-07 11:03:00,72.5,42.4,30.18,West,259,4.0,5.8,34,0.00,,,-99.99,FreeWX 2.05,2013-04-07 15:03:00,
2013-04-07 11:13:00,73.0,42.3,30.18,West,266,4.0,6.7,33,0.00,,,-99.99,FreeWX 2.05,2013-04-07 15:13:00,
2013-04-07 11:23:00,73.8,42.8,30.18,West,262,3.0,6.7,33,0.00,,,-99.99,FreeWX 2.05,2013-04-07 15:23:00,
2013-04-07 11:33:00,74.1,43.2,30.18,West,264,3.0,6.3,33,0.00,,,-99.99,FreeWX 2.05,2013-04-07 15:33:00,
2013-04-07 11:43:00,74.7,42.8,30.18,West,268,3.0,5.8,32,0.00,,,-99.99,FreeWX 2.05,2013-04-07 15:43:00,
2013-04-07 11:53:00,74.7,42.1,30.18,West,261,4.0,6.7,31,0.00,,,-99.99,FreeWX 2.05,2013-04-07 15:53:00,
2013-04-07 12:03:00,74.7,42.1,30.18,West,263,4.0,6.7,31,0.00,,,-99.99,FreeWX 2.05,2013-04-07 16:03:00,
2013-04-07 12:13:00,75.6,42.8,30.18,West,266,3.0,5.8,31,0.00,,,-99.99,FreeWX 2.05,2013-04-07 16:13:00,
2013-04-07 12:23:00,76.1,43.3,30.18,West,264,3.0,6.3,31,0.00,,,-99.99,FreeWX 2.05,2013-04-07 16:23:00,
2013-04-07 12:33:00,76.6,42.8,30.18,West,281,3.0,4.9,30,0.00,,,-99.99,FreeWX 2.05,2013-04-07 16:33:00,
2013-04-07 12:43:00,77.4,41.7,30.18,West,260,3.0,6.3,28,0.00,,,-99.99,FreeWX 2.05,2013-04-07 16:43:00,
2013-04-07 12:53:00,77.4,40.8,30.15,West,264,4.0,6.7,27,0.00,,,-99.99,FreeWX 2.05,2013-04-07 16:53:00,
2013-04-07 13:13:00,78.4,40.6,30.15,West,266,3.0,6.3,26,0.00,,,-99.99,FreeWX 2.05,2013-04-07 17:13:00,
2013-04-07 13:23:00,79.2,41.4,30.15,WNW,289,3.0,4.9,26,0.00,,,-99.99,FreeWX 2.05,2013-04-07 17:23:00,
2013-04-07 13:33:00,79.2,40.3,30.15,West,273,3.0,5.4,25,0.00,,,-99.99,FreeWX 2.05,2013-04-07 17:33:00,
2013-04-07 13:43:00,79.2,39.2,30.15,West,271,3.0,6.7,24,0.00,,,-99.99,FreeWX 2.05,2013-04-07 17:43:00,
2013-04-07 13:53:00,78.1,37.2,30.15,West,261,3.0,6.3,23,0.00,,,-99.99,FreeWX 2.05,2013-04-07 17:53:00,
2013-04-07 14:03:00,78.8,37.9,30.12,WSW,258,3.0,5.8,23,0.00,,,-99.99,FreeWX 2.05,2013-04-07 18:03:00,
2013-04-07 14:13:00,79.2,38.1,30.12,West,263,3.0,4.9,23,0.00,,,-99.99,FreeWX 2.05,2013-04-07 18:13:00,
2013-04-07 14:23:00,79.9,37.6,30.12,West,271,2.0,5.8,22,0.00,,,-99.99,FreeWX 2.05,2013-04-07 18:23:00,
2013-04-07 14:33:00,80.6,38.3,30.12,West,265,3.0,4.9,22,0.00,,,-99.99,FreeWX 2.05,2013-04-07 18:33:00,
2013-04-07 14:43:00,81.1,37.4,30.12,WSW,251,3.0,5.8,21,0.00,,,-99.99,FreeWX 2.05,2013-04-07 18:43:00,
2013-04-07 14:53:00,81.5,36.5,30.12,WSW,249,2.0,5.4,20,0.00,,,-99.99,FreeWX 2.05,2013-04-07 18:53:00,
2013-04-07 15:03:00,81.5,36.5,30.12,WSW,245,2.0,4.9,20,0.00,,,-99.99,FreeWX 2.05,2013-04-07 19:03:00,
2013-04-07 15:14:00,80.6,35.8,30.12,WSW,253,1.0,4.5,20,0.00,,,-99.99,FreeWX 2.05,2013-04-07 19:14:00,
2013-04-07 15:24:00,81.9,36.9,30.09,WSW,243,2.0,4.9,20,0.00,,,-99.99,FreeWX 2.05,2013-04-07 19:24:00,
2013-04-07 15:44:00,83.5,38.1,30.09,East,100,3.0,6.7,20,0.00,,,-99.99,FreeWX 2.05,2013-04-07 19:44:00,
2013-04-07 15:54:00,83.8,38.5,30.09,ENE,70,4.0,7.8,20,0.00,,,-99.99,FreeWX 2.05,2013-04-07 19:54:00,
2013-04-07 16:04:00,82.9,39.0,30.09,SE,141,3.0,10.1,21,0.00,,,-99.99,FreeWX 2.05,2013-04-07 20:04:00,
2013-04-07 16:14:00,82.8,38.8,30.09,SE,137,2.0,5.8,21,0.00,,,-99.99,FreeWX 2.05,2013-04-07 20:14:00,
2013-04-07 16:35:00,81.5,37.8,30.09,SSE,153,2.0,5.8,21,0.00,,,-99.99,FreeWX 2.05,2013-04-07 20:35:00,
2013-04-07 16:45:00,81.7,39.2,30.09,ESE,104,3.0,7.8,22,0.00,,,-99.99,FreeWX 2.05,2013-04-07 20:45:00,
2013-04-07 16:55:00,81.1,38.7,30.09,ESE,113,3.0,7.4,22,0.00,,,-99.99,FreeWX 2.05,2013-04-07 20:55:00,
2013-04-07 17:05:00,80.8,38.3,30.09,ESE,117,4.0,9.2,22,0.00,,,-99.99,FreeWX 2.05,2013-04-07 21:05:00,
2013-04-07 17:15:00,80.2,37.9,30.09,ESE,109,4.0,10.1,22,0.00,,,-99.99,FreeWX 2.05,2013-04-07 21:15:00,
2013-04-07 17:25:00,79.3,37.2,30.09,SSE,168,3.0,7.8,22,0.00,,,-99.99,FreeWX 2.05,2013-04-07 21:25:00,
2013-04-07 17:45:00,78.4,36.5,30.09,East,94,3.0,8.3,22,0.00,,,-99.99,FreeWX 2.05,2013-04-07 21:45:00,
2013-04-07 17:55:00,78.4,37.6,30.09,ESE,114,2.0,9.6,23,0.00,,,-99.99,FreeWX 2.05,2013-04-07 21:55:00,
2013-04-07 18:05:00,77.9,37.0,30.09,SE,142,2.0,7.4,23,0.00,,,-99.99,FreeWX 2.05,2013-04-07 22:05:00,
2013-04-07 18:15:00,77.4,36.7,30.09,ESE,106,3.0,8.7,23,0.00,,,-99.99,FreeWX 2.05,2013-04-07 22:15:00,
2013-04-07 18:25:00,77.0,37.4,30.09,SE,138,2.0,6.9,24,0.00,,,-99.99,FreeWX 2.05,2013-04-07 22:25:00,
2013-04-07 18:35:00,76.6,37.0,30.09,SE,128,2.0,7.4,24,0.00,,,-99.99,FreeWX 2.05,2013-04-07 22:35:00,
2013-04-07 18:45:00,76.3,36.9,30.09,ESE,114,3.0,6.9,24,0.00,,,-99.99,FreeWX 2.05,2013-04-07 22:45:00,
2013-04-07 18:55:00,75.6,37.2,30.09,SSE,161,2.0,7.4,25,0.00,,,-99.99,FreeWX 2.05,2013-04-07 22:55:00,
2013-04-07 19:05:00,74.8,37.6,30.09,South,184,2.0,5.8,26,0.00,,,-99.99,FreeWX 2.05,2013-04-07 23:05:00,
2013-04-07 19:15:00,74.7,38.5,30.06,SSE,158,2.0,6.3,27,0.00,,,-99.99,FreeWX 2.05,2013-04-07 23:15:00,
2013-04-07 19:25:00,74.3,39.0,30.06,SSE,168,1.0,6.7,28,0.00,,,-99.99,FreeWX 2.05,2013-04-07 23:25:00,
2013-04-07 19:35:00,74.1,39.7,30.09,SE,140,1.0,5.4,29,0.00,,,-99.99,FreeWX 2.05,2013-04-07 23:35:00,
2013-04-07 19:45:00,73.4,41.0,30.09,South,171,1.0,6.3,31,0.00,,,-99.99,FreeWX 2.05,2013-04-07 23:45:00,
2013-04-07 19:55:00,73.0,40.6,30.09,SSW,196,1.0,4.9,31,0.00,,,-99.99,FreeWX 2.05,2013-04-07 23:55:00,
2013-04-07 20:05:00,72.5,40.1,30.06,South,189,1.0,5.4,31,0.00,,,-99.99,FreeWX 2.05,2013-04-08 00:05:00,
2013-04-07 20:15:00,72.1,40.6,30.09,North,-999,0.0,4.0,32,0.00,,,-99.99,FreeWX 2.05,2013-04-08 00:15:00,
2013-04-07 20:25:00,72.0,40.5,30.09,North,-999,0.0,4.5,32,0.00,,,-99.99,FreeWX 2.05,2013-04-08 00:25:00,
2013-04-07 20:35:00,71.6,40.1,30.09,North,-999,0.0,3.6,32,0.00,,,-99.99,FreeWX 2.05,2013-04-08 00:35:00,
2013-04-07 20:45:00,71.6,41.0,30.09,North,-999,0.0,3.6,33,0.00,,,-99.99,FreeWX 2.05,2013-04-08 00:45:00,
2013-04-07 20:55:00,71.2,40.6,30.09,North,-999,0.0,2.7,33,0.00,,,-99.99,FreeWX 2.05,2013-04-08 00:55:00,
2013-04-07 21:05:00,71.1,40.5,30.09,North,-999,0.0,3.1,33,0.00,,,-99.99,FreeWX 2.05,2013-04-08 01:05:00,
2013-04-07 21:15:00,70.9,41.2,30.09,North,-999,0.0,2.7,34,0.00,,,-99.99,FreeWX 2.05,2013-04-08 01:15:00,
2013-04-07 21:25:00,70.5,40.8,30.09,North,-999,0.0,0.0,34,0.00,,,-99.99,FreeWX 2.05,2013-04-08 01:25:00,
2013-04-07 21:35:00,70.3,40.6,30.09,North,-999,0.0,0.0,34,0.00,,,-99.99,FreeWX 2.05,2013-04-08 01:35:00,
2013-04-07 21:45:00,70.3,40.6,30.12,North,-999,0.0,0.0,34,0.00,,,-99.99,FreeWX 2.05,2013-04-08 01:45:00,
2013-04-07 21:55:00,70.2,40.5,30.12,North,-999,0.0,0.0,34,0.00,,,-99.99,FreeWX 2.05,2013-04-08 01:55:00,
2013-04-07 22:05:00,70.0,40.3,30.12,North,-999,0.0,0.0,34,0.00,,,-99.99,FreeWX 2.05,2013-04-08 02:05:00,
2013-04-07 22:15:00,70.0,41.0,30.12,North,-999,0.0,0.0,35,0.00,,,-99.99,FreeWX 2.05,2013-04-08 02:15:00,
2013-04-07 22:25:00,69.8,40.8,30.12,North,-999,0.0,0.0,35,0.00,,,-99.99,FreeWX 2.05,2013-04-08 02:25:00,
2013-04-07 22:35:00,69.6,40.8,30.12,North,-999,0.0,0.0,35,0.00,,,-99.99,FreeWX 2.05,2013-04-08 02:35:00,
2013-04-07 22:45:00,69.6,41.5,30.12,North,-999,0.0,0.0,36,0.00,,,-99.99,FreeWX 2.05,2013-04-08 02:45:00,
2013-04-07 22:55:00,69.6,41.5,30.12,North,-999,0.0,0.0,36,0.00,,,-99.99,FreeWX 2.05,2013-04-08 02:55:00,
2013-04-07 23:05:00,69.6,42.3,30.12,North,-999,0.0,0.0,37,0.00,,,-99.99,FreeWX 2.05,2013-04-08 03:05:00,
2013-04-07 23:36:00,69.3,43.2,30.12,North,-999,0.0,0.0,39,0.00,,,-99.99,FreeWX 2.05,2013-04-08 03:36:00,
2013-04-07 23:46:00,69.3,43.2,30.12,North,-999,0.0,0.0,39,0.00,,,-99.99,FreeWX 2.05,2013-04-08 03:46:00,
2013-04-07 23:56:00,69.1,43.2,30.12,North,-999,0.0,0.0,39,0.00,,,-99.99,FreeWX 2.05,2013-04-08 03:56:00,